Location: Asbacherhof
(48.8543°N, 10.7903°E)
Time: 22:22:17
(UTC+00:00)

SME Rocket - Visible Passes

Search period start: 24 September 2022 00:00
Search period end: 04 October 2022 00:00
Orbit: 550 x 2650 km, 99.9° (Epoch: 24 September)

Date Brightness Start Highest point End Pass type
(mag) Time Alt. Az. Time Alt. Az. Time Alt. Az.
24 Sep 6.2 00:51:14 18° NW 00:51:14 18° NW 00:53:05 10° NW visible
24 Sep 6.4 20:33:58 13° NE 20:34:08 13° NE 20:36:49 10° NNE visible
24 Sep 5.4 22:32:15 40° NNE 22:32:15 40° NNE 22:36:03 10° N visible
25 Sep 6.1 00:30:31 21° NW 00:30:31 21° NW 00:32:34 10° NW visible
25 Sep 5.6 22:11:31 34° NNE 22:11:31 34° NNE 22:15:01 10° N visible
26 Sep 6.0 00:09:48 23° NW 00:09:48 23° NW 00:11:56 10° NNW visible
26 Sep 5.8 21:50:47 27° NNE 21:50:47 27° NNE 21:53:53 10° N visible
26 Sep 5.9 23:49:04 25° NNW 23:49:04 25° NNW 23:51:11 10° NNW visible
27 Sep 5.9 21:30:02 21° NNE 21:30:02 21° NNE 21:32:40 10° N visible
27 Sep 5.9 23:28:18 25° NNW 23:28:18 25° NNW 23:30:23 10° NNW visible
28 Sep 6.1 21:09:16 16° NE 21:09:16 16° NE 21:11:16 10° NNE visible
28 Sep 5.9 23:07:33 25° NNW 23:07:33 25° NNW 23:09:29 10° NNW visible
29 Sep 6.3 20:48:30 12° NE 20:48:30 12° NE 20:49:30 10° NNE visible
29 Sep 6.0 22:46:46 23° N 22:46:46 23° N 22:48:32 10° N visible
30 Sep 6.0 22:25:59 20° N 22:25:59 20° N 22:27:30 10° N visible
01 Oct 6.1 22:05:10 17° N 22:05:10 17° N 22:06:24 10° N visible
02 Oct 6.2 21:44:22 14° NNE 21:44:22 14° NNE 21:45:11 10° N visible
02 Oct 6.5 23:42:37 10° NNW 23:42:37 10° NNW 23:42:40 10° NNW visible
03 Oct 6.3 21:23:31 11° NNE 21:23:31 11° NNE 21:23:50 10° NNE visible
03 Oct 6.6 23:21:47 10° NNW 23:21:47 10° NNW 23:21:50 10° NNW visible
